loading
|

OBJECT G, 60751

Orbit data source: Space-Track

OBJECT G, 60751 is a satellite owned by Xinghe Dongli (CN) in LEO that was launched on Thu, 29 Aug 2024 UTC launched from the Yellow Sea Launch Area, China (YSLA). Unknown objects in Earth's orbit typically refer to objects detected orbiting the Earth but have not yet been identified or cataloged. These objects could be anything from previously untracked satellites, spent rocket stages, debris from satellite collisions, or even natural meteoroids temporarily captured by Earth's gravity.

Loading next visibility...
Loading greatness...
OBJECT G details
Identifier
60751, 2024-153G
Orbit
LEO
Last TLE update2 hours ago
Origin
Flag of CNXinghe Dongli (CN / PRC)
ManufacturerXinghe Dongli
Mission statusUnknown
MissionUnknown
Bus & MotorEDGE, EDGE
Mass150 kg wet, ~150 kg dry
Launch date (UTC)
2024-08-29 (3 weeks ago)
Launch vehicleUnknown
Launch site
Yellow Sea Launch Area, China (YSLA)
Object typeUnknown
Radar Cross SectionLarge (>1 m²)

Expand to show TLE details & history

TLE from 2 hours ago
0 OBJECT G
1 60751U 24153G   24261.87673003  .00129820  65301-5  11261-2 0  9998
2 60751  97.6421  20.6577 0164567 298.3411  60.1328 15.53520083  3054
Epoch: 2024-09-17T21:02Z
Definitive object data (Epoch: 2024-09-17T21:02:29.474Z)
Latitude0.00001°
Longitude67.7498°
Altitude355.373 km
Speed7.727 km/s
True Right ascension01h 22m 37s
True Declination0° 00' 00"
Sunlit
Object was in full shadow at TLE epoch
Predictive object data (real-time)
Latitude19.94653°
Longitude-109.37478°
Altitude491.384 km
Speed7.575 km/s
Apparent Right ascension10h 17m 09s
Apparent Declination-23° 36' 43"
Sunlit
Object is in daylight
Predictive observer data (real-time)
Local Sidereal Time16:06:11
Azimuth249.876° W
Elevation-12.907°
Doppler factor1
Orbital elements
Apogee514.99 km
Perigee291.787 km
Semi-major axis6,781.525 km
Eccentricity0.0164567
Inclination97.6421°
RAAN20.6577°
Arg. of periapsis298.3411°
True anomaly61.78482°
Mean anomaly60.1328°
Eccentric anomaly60.95714°
Mean motion3.88644 °/min
BSTAR0.0011261
Period92.63 mins
No data available

OBJECT G Visibility forecast

Observer location: 39.9160978°, -105.1181434

OBJECT G is not visible in the next 10 days
Span
Click to sort rows by Start time (UTC) header in descending order
Start Az.
Max El. time (UTC)
Max El. Az.
Max El.
End time (UTC)
End Az.